Tracking 30306 objects as of 23-Apr-2025
HD Live streaming from Space Station
objects crossing your sky now

SL-14 DEB

Track SL-14 DEB now!
10-day predictions


NORAD ID: 19295
Int'l Code: 1978-100AE
Perigee: 1,264.9 km
Apogee: 2,051.2 km
Inclination: 82.0 °
Period: 119.3 minutes
Semi major axis: 8029 km
RCS: 0.0582 m2 (small)
Launch date: October 26, 1978
Source: Commonwealth of Independent States (former USSR) (CIS)
Launch site: PLESETSK MISSILE AND SPACE COMPLEX (PKMTR)

Note: This is SATELLITE DEBRIS
Your satellite tracking list
Your tracking list is empty




NASA's NSSDC Master Catalog

Two Line Element Set (TLE):
1 19295U 78100AE  25112.92989119  .00000303  00000-0  23422-2 0  9992
2 19295  81.9848 266.7672 0489671  21.2314 139.6106 12.06714629622453
Source of the keplerian elements: AFSPC